Weather History for KMKC - April, 2014

Change the Weather History Date:

Monday, April 28, 2014

  Actual Average Record
Temperature  
Mean Temperature 60 °F -  
Max Temperature 66 °F 67 °F 82 °F (2001)
Min Temperature 53 °F 49 °F 39 °F (2013)
Degree Days  
Heating Degree Days 5    
Growing Degree Days 10 (Base 50)    
Moisture  
Dew Point 46 °F    
Average Humidity 63    
Maximum Humidity 86    
Minimum Humidity 48    
Precipitation  
Precipitation 0.00 in - - ()
Sea Level Pressure  
Sea Level Pressure 29.35 in    
Wind  
Wind Speed 13 mph (SW)    
Max Wind Speed 22 mph    
Max Gust Speed 31 mph    
Visibility 9 miles    
Events Rain    
Averages and records for this station are not official NWS values.
T = Trace of Precipitation, MM = Missing Value Source: NWS Daily Summary

Daily Weather History Graph

Daily Weather History Graph

Search for Another Location

Airport or City:

Trip Planner

Search our weather history database for the weather conditions in past years. The results will help you decide how hot, cold, wet, or windy it might be!

Date:

Astronomy

Apr. 28, 2014 Rise Set
Actual Time 6:23 AM CDT 8:08 PM CDT
Civil Twilight 5:55 AM CDT 8:37 PM CDT
Nautical Twilight 5:20 AM CDT 9:11 PM CDT
Astronomical Twilight 4:43 AM CDT 9:49 PM CDT
Moon 6:02 AM CDT (4/28) 7:47 PM CDT (4/28)
Length of Visible Light 14h 42m
Length of Day
13h 44m
Waning Crescent, 0% of the Moon is Illuminated
Apr 28
Waning Crescent
Apr 29
New
May 6
First Quarter
May 14
Full
May 21
Last Quarter

Hourly Weather History & Observations

Time (CDT) Temp. Dew Point Humidity Pressure Visibility Wind Dir Wind Speed Gust Speed Precip Events Conditions
12:54 AM 64.0 °F 57.9 °F 80% 29.30 in 10.0 mi SE 16.1 mph 26.5 mph N/A   Clear
1:54 AM 66.0 °F 57.9 °F 75% 29.29 in 10.0 mi SSE 15.0 mph 21.9 mph N/A   Mostly Cloudy
2:54 AM 64.4 °F 59.0 °F 83% 29.28 in 10.0 mi SSE 9.2 mph 20.7 mph N/A   Overcast
3:54 AM 64.0 °F 57.9 °F 80% 29.26 in 10.0 mi South 12.7 mph - N/A   Overcast
4:54 AM 63.0 °F 57.9 °F 84% 29.24 in 10.0 mi SSW 8.1 mph - N/A   Overcast
5:29 AM 63.0 °F 57.9 °F 84% 29.27 in 10.0 mi South 6.9 mph - N/A   Overcast
5:54 AM 62.1 °F 57.9 °F 86% 29.27 in 10.0 mi South 11.5 mph - N/A   Overcast
6:54 AM 60.1 °F 46.0 °F 60% 29.30 in 5.0 mi SSW 8.1 mph - N/A   Haze
7:14 AM 59.0 °F 45.0 °F 60% 29.31 in 5.0 mi SW 8.1 mph - N/A   Haze
7:54 AM 57.9 °F 46.0 °F 65% 29.30 in 5.0 mi SW 10.4 mph - N/A   Haze
8:54 AM 57.9 °F 46.0 °F 65% 29.29 in 9.0 mi WSW 10.4 mph - N/A   Overcast
9:54 AM 57.9 °F 46.9 °F 67% 29.33 in 10.0 mi SW 13.8 mph 20.7 mph N/A   Overcast
10:54 AM 57.9 °F 45.0 °F 62% 29.35 in 10.0 mi SSW 11.5 mph 23.0 mph N/A   Overcast
11:01 AM 57.2 °F 44.6 °F 63% 29.36 in 10.0 mi SW 13.8 mph - N/A   Overcast
11:54 AM 57.0 °F 44.1 °F 62% 29.37 in 10.0 mi SW 16.1 mph 26.5 mph N/A   Overcast
12:54 PM 55.9 °F 41.0 °F 57% 29.39 in 10.0 mi SW 15.0 mph 26.5 mph N/A   Overcast
1:54 PM 57.9 °F 41.0 °F 53% 29.39 in 10.0 mi SW 16.1 mph 25.3 mph N/A   Overcast
2:54 PM 57.9 °F 39.0 °F 49% 29.39 in 10.0 mi SW 15.0 mph 20.7 mph N/A   Overcast
3:54 PM 59.0 °F 39.2 °F 48% 29.40 in 10.0 mi SSW 17.3 mph 24.2 mph N/A   Overcast
4:54 PM 59.0 °F 39.9 °F 49% 29.38 in 10.0 mi SW 13.8 mph 23.0 mph 0.00 in   Overcast
5:54 PM 57.9 °F 39.0 °F 49% 29.39 in 10.0 mi SW 21.9 mph 31.1 mph 0.00 in Rain Light Rain
5:56 PM 57.9 °F 39.0 °F 49% 29.39 in 10.0 mi WSW 15.0 mph 28.8 mph 0.00 in   Overcast
6:54 PM 57.0 °F 39.0 °F 51% 29.39 in 10.0 mi WSW 11.5 mph 24.2 mph 0.00 in   Overcast
7:54 PM 55.9 °F 37.9 °F 51% 29.41 in 10.0 mi SW 10.4 mph 21.9 mph N/A   Overcast
8:54 PM 55.0 °F 37.9 °F 53% 29.41 in 10.0 mi SW 10.4 mph 20.7 mph N/A   Overcast
9:54 PM 55.0 °F 37.9 °F 53% 29.43 in 10.0 mi SW 8.1 mph - N/A   Overcast
10:54 PM 54.0 °F 37.9 °F 55% 29.43 in 10.0 mi SW 11.5 mph - N/A   Overcast
11:54 PM 53.1 °F 39.9 °F 61% 29.42 in 10.0 mi WSW 13.8 mph 23.0 mph N/A   Overcast